This demonstration page uses our WeatherBlox Daily Observations layout. Learn more.

Left ArrowRight Arrow

31.31129, -92.44514

Hourly Observations for August 26, 2018

Temp ( °F °C ) Dew Point ( °F °C ) Humidity (%) Winds ( mph kmh ) Pressure ( in mb ) Visibility ( mi km ) Precip ( " mm )
12:53 am 00:53 Mostly Cloudy with Haze 77 25 71 21.7 82 82 SSE 6 9 30.08 1019 6 10 0.00 0.00
1:53 am 01:53 Hazy 76 24.4 71 21.7 85 85 Calm 30.07 1018 6 10 0.00 0.00
2:53 am 02:53 Clear with Mist and Fog 75 23.9 71 21.7 88 88 SE 3 6 30.07 1018 6 10 0.00 0.00
3:53 am 03:53 Clear with Mist and Fog 75 23.9 71 21.7 88 88 Calm 30.07 1018 6 10 0.00 0.00
4:53 am 04:53 Clear with Mist and Fog 74 23.3 71 21.7 91 91 Calm 30.07 1018 6 10 0.00 0.00
5:53 am 05:53 Clear with Mist and Fog 73 22.8 69 20.6 87 87 Calm 30.09 1019 6 10 0.00 0.00
6:53 am 06:53 Sunny with Mist and Fog 71 21.7 68 20 90 90 Calm 30.10 1019 4 6 0.00 0.00
7:53 am 07:53 Sunny with Mist and Fog 77 25 73 22.8 88 88 Calm 30.11 1020 4 6 0.00 0.00
8:53 am 08:53 Sunny 82 27.8 74 23.3 77 77 E 7 11 30.11 1020 7 11 0.00 0.00
9:53 am 09:53 Mostly Sunny 86 30 74 23.3 67 67 ESE 6 9 30.11 1020 9 14 0.00 0.00
10:53 am 10:53 Mostly Sunny 89 31.7 73 22.8 59 59 S 8 13 30.11 1020 9 14 0.00 0.00
11:53 am 11:53 Mostly Sunny 92 33.3 72 22.2 52 52 SE 7 11 30.10 1019 10 16 0.00 0.00
12:53 pm 12:53 Sunny 94 34.4 69 20.6 44 44 SE 7 11 30.07 1018 10 16 0.00 0.00
1:53 pm 13:53 Sunny 95 35 68 20 41 41 SE 7 11 30.05 1018 10 16 0.00 0.00
2:53 pm 14:53 Partly Cloudy 97 36.1 68 20 39 39 E 8 13 30.03 1017 10 16 0.00 0.00
3:53 pm 15:53 Partly Cloudy 95 35 66 18.9 39 39 ENE 6 9 30.01 1016 10 16 0.00 0.00
4:53 pm 16:53 Mostly Cloudy 95 35 68 20 41 41 SSE 8 13 29.99 1016 10 16 0.00 0.00
5:53 pm 17:53 Mostly Sunny 94 34.4 68 20 43 43 SSE 12 19 30.00 1016 10 16 0.00 0.00
6:53 pm 18:53 Sunny 87 30.6 72 22.2 61 61 SSE 13 20 30.01 1016 10 16 0.00 0.00
7:53 pm 19:53 Clear 83 28.3 72 22.2 70 70 SSE 8 13 30.02 1017 10 16 0.00 0.00
8:53 pm 20:53 Clear 80 26.7 71 21.7 74 74 SSE 6 9 30.03 1017 10 16 0.00 0.00
9:53 pm 21:53 Clear 79 26.1 72 22.2 79 79 SSE 5 7 30.05 1018 10 16 0.00 0.00
10:53 pm 22:53 Clear 77 25 72 22.2 85 85 S 5 7 30.05 1018 10 16 0.00 0.00
11:53 pm 23:53 Clear 76 24.4 72 22.2 88 88 SSE 5 7 30.05 1018 10 16 0.00 0.00

Powered by AerisWeather